GW1952 Weather Reports


Display with metric or nautical units.
time (UTC)temp
F
wind
direction
speed
MPH
gust
MPH
rain 1hr
in
rain 24hr
in
rain mn
in
humidity
%
barometer
mb
20260906230104 65 15 9.0 13.0 0.01 0.01 0.01 69 1015.1
20260906224558 66 344 9.0 14.0 0.01 0.01 0.01 69 1015.3
20260906223105 65 301 9.0 14.0 0.01 0.01 0.01 69 1015.6
20260906221604 64 309 6.0 11.0 0.01 0.01 0.01 69 1015.7
20260906220104 64 301 5.0 9.0 0.00 0.00 0.00 69 1015.8
20260906214558 64 319 6.0 12.0 0.00 0.00 0.00 69 1015.8
20260906213103 64 45 2.0 9.0 0.00 0.00 0.00 70 1015.7
20260906211600 63 33 2.0 6.0 0.00 0.00 0.00 72 1015.8
20260906210107 63 334 1.0 8.0 0.00 0.00 0.00 73 1015.9
20260906204606 62 93 1.0 7.0 0.00 0.00 0.00 74 1015.9
20260906203105 62 23 3.0 8.0 0.00 0.00 0.00 74 1015.8
20260906201607 62 71 3.0 9.0 0.00 0.00 0.00 75 1015.9
20260906200105 62 61 4.0 9.0 0.00 0.00 0.00 75 1016.0
20260906194606 61 347 5.0 9.0 0.00 0.00 0.00 76 1016.1
20260906193101 60 51 5.0 10.0 0.00 0.00 0.00 76 1016.4
20260906191602 60 64 5.0 10.0 0.00 0.00 0.00 77 1016.4
20260906190115 59 51 3.0 9.0 0.00 0.00 0.00 78 1016.5
20260906184603 59 36 5.0 14.0 0.00 0.00 0.00 79 1016.7
20260906183106 59 51 4.0 11.0 0.00 0.00 0.00 80 1016.6
20260906181601 59 84 6.0 12.0 0.00 0.00 0.00 80 1016.7
20260906180108 58 22 2.0 10.0 0.00 0.00 0.00 80 1017.2
20260906174558 58 344 5.0 11.0 0.00 0.00 0.00 80 1017.3
20260906173105 58 49 6.0 13.0 0.00 0.00 0.00 80 1016.7
20260906171604 56 307 8.0 15.0 0.00 0.00 0.00 81 1017.6
20260906170106 55 338 8.0 12.0 0.00 0.00 0.00 81 1018.1
20260906164559 55 298 10.0 15.0 0.00 0.00 0.00 80 1018.3
20260906163105 54 294 9.0 12.0 0.00 0.00 0.00 81 1018.4
20260906161600 54 294 9.0 12.0 0.00 0.00 0.00 80 1018.6
20260906160111 54 304 9.0 15.0 0.00 0.00 0.00 80 1018.6
20260906154607 54 294 10.0 16.0 0.00 0.00 0.00 80 1018.6
20260906153105 54 313 11.0 16.0 0.00 0.00 0.00 80 1018.8
20260906151604 54 306 10.0 18.0 0.00 0.00 0.00 80 1018.9
20260906150106 54 300 12.0 17.0 0.00 0.00 0.00 80 1019.1
20260906144605 55 298 13.0 19.0 0.00 0.00 0.00 80 1019.2
20260906143102 56 266 12.0 17.0 0.00 0.00 0.00 80 1019.4
20260906141603 56 275 8.0 11.0 0.00 0.00 0.00 80 1018.9
20260906140106 57 259 5.0 8.0 0.00 0.00 0.00 80 1018.7
20260906134603 58 296 3.0 5.0 0.00 0.04 0.00 80 1018.5
20260906133126 58 325 2.0 4.0 0.00 0.04 0.00 80 1018.7
20260906131604 58 316 5.0 10.0 0.00 0.04 0.00 79 1018.6
20260906130111 58 301 3.0 7.0 0.00 0.04 0.00 79 1018.8
20260906124612 58 59 3.0 8.0 0.00 0.04 0.00 79 1018.7
20260906123102 58 57 3.0 8.0 0.00 0.04 0.00 79 1018.7
20260906121604 58 348 6.0 12.0 0.00 0.04 0.00 78 1018.6
20260906120058 58 350 6.0 11.0 0.00 0.04 0.00 79 1018.1
20260906114611 58 47 4.0 10.0 0.00 0.04 0.00 79 1018.3
20260906113101 58 327 7.0 13.0 0.00 0.04 0.00 78 1018.3
20260906111602 58 31 8.0 11.0 0.00 0.04 0.00 78 1018.7
20260906110100 58 13 7.0 11.0 0.00 0.04 0.00 78 1018.7
20260906104629 58 11 9.0 15.0 0.00 0.04 0.00 78 1019.0
20260906103105 58 350 8.0 13.0 0.00 0.04 0.00 78 1019.1
20260906101558 58 13 6.0 14.0 0.00 0.04 0.00 78 1018.9
20260906100104 58 346 6.0 11.0 0.00 0.04 0.00 78 1018.9
20260906094601 58 341 4.0 13.0 0.00 0.04 0.00 78 1018.9
20260906093123 58 336 7.0 12.0 0.00 0.04 0.00 78 1018.8
20260906091601 58 342 8.0 12.0 0.00 0.04 0.00 79 1018.7
20260906090059 57 348 8.0 13.0 0.00 0.04 0.00 79 1018.7
20260906084602 57 309 9.0 14.0 0.00 0.04 0.00 79 1019.0
20260906083102 57 317 7.0 12.0 0.00 0.04 0.00 78 1019.1
20260906081601 57 303 8.0 11.0 0.00 0.04 0.00 79 1019.5
20260906080059 57 294 8.0 12.0 0.00 0.04 0.00 78 1019.7
20260906074556 58 305 7.0 11.0 0.00 0.04 0.00 77 1019.8
20260906073101 58 321 5.0 9.0 0.00 0.04 0.00 76 1019.9
20260906071559 58 342 4.0 8.0 0.00 0.04 0.00 76 1019.9
20260906070059 58 342 6.0 12.0 0.00 0.04 0.00 76 1020.0
20260906064603 58 323 9.0 12.0 0.00 0.04 0.00 77 1019.9
20260906063100 57 350 6.0 14.0 0.00 0.04 0.00 78 1020.1
20260906061601 57 324 10.0 14.0 0.00 0.04 0.00 79 1020.3
20260906054609 56 306 10.0 13.0 0.00 0.04 0.04 78 1020.5
20260906053101 57 309 9.0 14.0 0.00 0.04 0.04 76 1020.5
20260906051559 58 325 7.0 11.0 0.00 0.04 0.04 75 1020.3
20260906050124 58 317 6.0 13.0 0.00 0.04 0.04 74 1020.1
20260906044602 59 332 7.0 14.0 0.00 0.04 0.04 74 1019.9
20260906043102 60 286 7.0 11.0 0.00 0.04 0.04 71 1019.9
20260906041559 60 299 7.0 14.0 0.00 0.04 0.04 69 1020.3
20260906040136 60 11 10.0 18.0 0.00 0.04 0.04 68 1019.3
20260906034605 60 10 11.0 17.0 0.00 0.04 0.04 67 1018.6
20260906033111 61 344 10.0 18.0 0.00 0.04 0.04 65 1019.1
20260906031606 62 334 11.0 17.0 0.00 0.04 0.04 63 1019.2
20260906024618 62 271 13.0 18.0 0.00 0.04 0.04 63 1020.4
20260906023059 63 43 7.0 16.0 0.00 0.04 0.04 61 1017.7
20260906021603 64 36 9.0 14.0 0.00 0.04 0.04 59 1017.4
20260906020108 65 38 8.0 12.0 0.00 0.04 0.04 57 1017.6
20260906014611 66 11 7.0 17.0 0.00 0.04 0.04 55 1017.4
20260906013104 67 49 7.0 14.0 0.00 0.04 0.04 52 1017.6
20260906011602 69 15 9.0 16.0 0.00 0.04 0.04 51 1017.6
20260906010103 70 344 11.0 17.0 0.00 0.04 0.04 49 1017.6
20260906004607 70 346 13.0 21.0 0.00 0.04 0.04 48 1017.6
20260906003106 71 308 13.0 23.0 0.00 0.04 0.04 49 1017.7
20260906001607 72 317 15.0 25.0 0.00 0.04 0.04 45 1017.8
20260906000108 73 333 11.0 20.0 0.00 0.04 0.04 43 1017.7
20260905234611 73 316 9.0 16.0 0.00 0.04 0.04 40 1017.8
20260905233104 73 337 10.0 18.0 0.00 0.04 0.04 39 1017.9
20260905231603 73 17 8.0 14.0 0.00 0.04 0.04 37 1018.0